User: anonymous   Login
Location: *
(40.4270°N, 9.4940°E)
Time: 02:08:34
(UTC+01:00)
Language:

Okean 2 - Orbit

View from above orbital plane
View from above orbital plane
View from above satellite
View from above satellite

Ground track
Ground track

The orbit data is extracted from the following two-line orbital elements,

1 20510U 90018A   14304.80102110  .00002745  00000-0  23917-3 0  8746
2 20510 082.5191 011.5531 0012366 345.6972 153.3452 14.96491742337807
Epoch (UTC): 31 October 2014 19:13:28
Eccentricity: 0.0012366
inclination: 82.5191°
perigee height: 569 km
apogee height: 586 km
right ascension of ascending node: 11.5531°
argument of perigee: 345.6972°
revolutions per day: 14.96491742
mean anomaly at epoch: 153.3452°
orbit number at epoch: 33780

The dashed part of the orbit path shows where the satellite is in the earth's shadow,  

DLR